User: anonymous   Login
Location: Quaker Farms
(41.4276°N, 73.1557°W)
Time: 14:52:58
(UTC+00:00)
Language:

Tiros 1 despin weight - Orbit

View from above orbital plane
View from above orbital plane
View from above satellite
View from above satellite

Ground track
Ground track

The orbit data is extracted from the following two-line orbital elements,

1   115U 60002D   21172.57467629 -.00000019  00000-0  24890-4 0  9992
2   115  48.1670 299.0294 0033842  76.2866 284.1811 14.83781652267785
Epoch (UTC): 21 June 2021 13:47:32
Eccentricity: 0.0033842
inclination: 48.1670°
perigee height: 594 km
apogee height: 641 km
right ascension of ascending node: 299.0294°
argument of perigee: 76.2866°
revolutions per day: 14.83781652
mean anomaly at epoch: 284.1811°
orbit number at epoch: 26778

The dashed part of the orbit path shows where the satellite is in the earth's shadow,  

DLR